Location: Poughquag
(41.6090°N, 73.6820°W)
Time: 23:56:53
(UTC-05:00)

Courier 1B - All Passes

Search period start: 28 November 2023 00:00
Search period end: 08 December 2023 00:00
Orbit: 962 x 1208 km, 28.3° (Epoch: 28 November)

Date Brightness Start Highest point End Pass type
(mag) Time Alt. Az. Time Alt. Az. Time Alt. Az.
28 Nov - 12:00:52 10° SSW 12:05:24 20° SSE 12:10:00 10° ESE daylight
28 Nov - 13:53:17 10° SW 13:58:29 25° S 14:03:49 10° SE daylight
28 Nov - 15:47:05 10° WSW 15:51:36 19° SSW 15:56:15 10° SSE daylight
29 Nov - 11:07:51 10° SSW 11:11:54 17° SSE 11:15:56 10° SE daylight
29 Nov - 12:59:48 10° SW 13:04:55 25° S 13:10:07 10° SE daylight
29 Nov - 14:53:14 10° WSW 14:58:01 21° SSW 15:02:56 10° SE daylight
29 Nov - 16:49:37 10° SW 16:51:01 11° SSW 16:52:27 10° SSW visible
30 Nov - 10:15:05 10° S 10:18:23 14° SSE 10:21:39 10° SE daylight
30 Nov - 12:06:22 10° SW 12:11:21 24° S 12:16:23 10° ESE daylight
30 Nov - 13:59:30 10° WSW 14:04:27 23° S 14:09:31 10° SE daylight
30 Nov - 15:54:26 10° SW 15:57:29 13° SSW 16:00:34 10° S daylight
01 Dec - 09:22:54 10° S 09:24:52 11° SSE 09:26:50 10° SE daylight
01 Dec - 11:13:01 10° SW 11:17:49 22° S 11:22:36 10° ESE daylight
01 Dec - 13:05:50 10° SW 13:10:53 24° S 13:16:01 10° SE daylight
01 Dec - 15:00:06 10° SW 15:03:56 16° SSW 15:07:50 10° SSE daylight
02 Dec - 10:19:46 10° SSW 10:24:16 20° SSE 10:28:44 10° ESE daylight
02 Dec - 12:12:14 10° SW 12:17:21 25° S 12:22:28 10° SE daylight
02 Dec - 14:06:04 10° WSW 14:10:23 19° SSW 14:14:48 10° SSE daylight
03 Dec - 09:26:38 10° SSW 09:30:44 17° SSE 09:34:46 10° SE daylight
03 Dec - 11:18:39 10° SW 11:23:47 25° S 11:28:52 10° SE daylight
03 Dec - 13:12:10 10° WSW 13:16:51 21° SSW 13:21:34 10° SE daylight
03 Dec - 15:08:45 10° SSW 15:09:47 10° SSW 15:10:50 10° SSW daylight
04 Dec - 08:33:47 10° S 08:37:12 14° SSE 08:40:33 10° SE daylight
04 Dec - 10:25:09 10° SW 10:30:14 24° S 10:35:13 10° ESE daylight
04 Dec - 12:18:22 10° WSW 12:23:19 23° S 12:28:15 10° SE daylight
04 Dec - 14:13:21 10° SW 14:16:17 13° SSW 14:19:14 10° S daylight
05 Dec - 07:41:27 10° S 07:43:39 12° SSE 07:45:49 10° SE daylight
05 Dec - 09:31:41 10° SW 09:36:40 22° S 09:41:30 10° ESE daylight
05 Dec - 11:24:37 10° SW 11:29:46 24° S 11:34:50 10° SE daylight
05 Dec - 13:18:57 10° SW 13:22:46 16° SSW 13:26:36 10° SSE daylight
06 Dec - 08:38:19 10° SSW 08:43:05 20° SSE 08:47:42 10° ESE daylight
06 Dec - 10:30:55 10° SW 10:36:13 25° S 10:41:22 10° SE daylight
06 Dec - 12:24:50 10° WSW 12:29:15 19° SSW 12:33:38 10° SSE daylight
07 Dec - 07:45:07 10° SSW 07:49:31 18° SSE 07:53:46 10° ESE daylight
07 Dec - 09:37:15 10° SW 09:42:38 25° S 09:47:50 10° SE daylight
07 Dec - 11:30:52 10° WSW 11:35:43 22° SSW 11:40:30 10° SE daylight
07 Dec - 13:27:14 10° SW 13:28:37 11° SSW 13:30:00 10° SSW daylight
